Flag for Mexico Weather past 2 weeks in Merida, Yucatán, Mexico

Now
91 °F

Partly sunny.


Feels Like: 99 °F
Forecast: N/A
Wind: 7 mph from Northeast

Location: Aerop. Internacional Merida - Yuc

Current Time: Aug 27, 2014 at 4:33:12 PM

Latest Report: Aug 27, 2014 at 3:50 PM


Visibility: 7 mi

Pressure: 29.85 "Hg

Humidity: 52%

Dew point: 72 °F

Location of MeridaLocation

Historic Weather in Merida — Graph

°F

Merida temperature yesterday

Maximum temperature yesterday: 91 °F (at 12:50 PM)
Minimum temperature yesterday: 75 °F (at 2:53 AM)
Average temperature yesterday: 83 °F

Past Weeks' High & Low Weather Summary

 TemperatureHumidityPressure
High97 °F (Aug 12, 2:45 PM)100% (Aug 12, 4:46 PM)30.39 "Hg (Aug 12, 4:46 PM)
Low72 °F (Aug 12, 7:50 PM)34% (Aug 27, 1:41 PM)29.80 "Hg (Aug 25, 4:50 PM)
Average82 °F77%29.96 "Hg
* Reported Aug 12 2:45 PM — Aug 27 2:41 PM, Merida, Weather by CustomWeather, © 2014

Note: Actual official high and low records may vary slightly from our data, if they occured in-between our weather recording intervals... More about our weather records

Advertising

Merida weather history for previous 24 hours

 ConditionsComfort  
Time TempWeatherWind HumidityBarometerVisibility
2:41 PM
Aug 27
90 °FPartly sunny.12 mph59%29.86 "Hg7 mi
1:41 PM95 °FPartly sunny.7 mph34%29.86 "Hg7 mi
11:44 AM84 °FBroken clouds.No wind74%29.89 "Hg5 mi
10:47 AM90 °FBroken clouds.2 mph55%29.92 "Hg7 mi
9:32 AM84 °FPartly sunny.3 mph74%29.91 "Hg5 mi
8:01 AM79 °FPartly sunny.No wind100%29.88 "Hg4 mi
7:17 AM75 °FFog.No wind100%29.87 "Hg2 mi
6:46 AM75 °FPartly cloudy.No wind100%29.85 "Hg3 mi
5:40 AM75 °FClear.3 mph100%29.84 "Hg5 mi
4:50 AM75 °FClear.No wind100%29.84 "Hg5 mi
3:48 AM75 °FPassing clouds.No wind100%29.86 "Hg5 mi
2:48 AM77 °FPassing clouds.3 mph100%29.86 "Hg6 mi
1:46 AM79 °FPassing clouds.No wind100%29.87 "Hg7 mi
12:41 AM79 °FPassing clouds.No wind94%29.88 "Hg7 mi
10:41 PM
Aug 26
81 °FPassing clouds.No wind79%29.89 "Hg7 mi
9:42 PM82 °FPassing clouds.3 mph79%29.90 "Hg7 mi
7:48 PM84 °FBroken clouds.8 mph70%29.85 "Hg7 mi
6:55 PM86 °FScattered clouds.7 mph62%29.86 "Hg7 mi
5:48 PM88 °FPartly sunny.5 mph62%29.84 "Hg7 mi
4:46 PM90 °FPartly sunny.9 mph52%29.82 "Hg7 mi
Weather by CustomWeather, © 2014

See weather overviewHow to use our weather pages